Location: Hohe Wand Waldeggerhaus
(47.8500°N, 16.0440°E)
Time: 07:39:15
(UTC+02:00)

Envisat - Pass Details

Date: 31 May 2024
Orbit: 762 x 764 km, 98.3° (Epoch: 13 June)

Event Time Altitude Azimuth Distance (km) Brightness Sun altitude
Rises 03:29:38 0° 22° (NNE) 3,238 8.0 -11.9°
Reaches altitude 10° 03:32:12 10° 33° (NNE) 2,307 7.0 -11.6°
Maximum altitude 03:36:42 31° 95° (E) 1,321 4.6 -11.2°
Drops below altitude 10° 03:41:09 10° 157° (SSE) 2,291 5.2 -10.7°
Sets 03:43:41 0° 167° (SSE) 3,212 5.9 -10.4°
